Regional Weather Roundup
Issued by NWS

Home | Current Version | Previous Version | Graphics & Text | Print | Product List | Glossary Off
Versions: 1 2 3 4 5 6 7 8 9 10 11 12 13 14 15 16 17 18 19 20 21 22 23 24 25 26 27 28 29 30 31 32 33 34 35 36 37 38 39 40 41 42 43 44 45 46 47 48 49 50

836
ASUS43 KFSD 261110
RWRSD

WEATHER ROUNDUP FOR SOUTH DAKOTA
NATIONAL WEATHER SERVICE SIOUX FALLS SD
600 AM CDT TUE SEP 26 2017

NOTE: "FAIR" INDICATES FEW OR NO CLOUDS BELOW 12,000 FEET WITH NO
SIGNIFICANT WEATHER AND/OR OBSTRUCTIONS TO VISIBILITY.


SDZ001>005-009-010-012>017-261200-
NORTHWEST AND NORTH CENTRAL SOUTH DAKOTA

CITY           SKY/WX    TMP DP  RH WIND       PRES   REMARKS
BUFFALO          N/A     44  43  96 S6        30.01S
FAITH            N/A     45  45 100 S9        30.08F
MOBRIDGE       PTCLDY    43  41  93 N3        30.08R
$$

SDZ012>016-024>037-041>051-057-063-072>074-261200-
SOUTHWEST AND SOUTH CENTRAL SOUTH DAKOTA

CITY           SKY/WX    TMP DP  RH WIND       PRES   REMARKS
RAPID CTY ARPT NOT AVBL
PIERRE         CLEAR     44  43  96 W7        30.09S
CUSTER         CLOUDY    39  37  92 CALM      30.11S
ELLSWORTH AFB  PTCLDY    44  44 100 SW3       30.08S
PHILIP         MOCLDY    44  42  93 CALM      30.09F
PINE RIDGE     CLEAR     40  39  97 SW5       30.11S
SPEARFISH      FAIR      41  41 100 W5        30.09S
WINNER         FOG       43  41  93 W6        30.11S VSB 3/4
$$

SDZ004>011-016>023-039-040-261200-
NORTHEAST SOUTH DAKOTA

CITY           SKY/WX    TMP DP  RH WIND       PRES   REMARKS
ABERDEEN       CLOUDY    48  48 100 NW8       30.07R
WATERTOWN      LGT RAIN  49  49 100 NW10      30.04R FOG
BROOKINGS      LGT RAIN  49  48  97 NW10      30.04R FOG
SISSETON         N/A     50  50 100 N9        30.01F
$$

SDZ017-020-022-023-036>040-048>070-261200-
SOUTHEAST SOUTH DAKOTA

CITY           SKY/WX    TMP DP  RH WIND       PRES   REMARKS
SIOUX FALLS    CLOUDY    51  51 100 NW12      30.02F FOG
HURON          CLOUDY    48  48 100 NW9       30.07S
CHAMBERLAIN    FOG       47  47 100 NW5       30.10R VSB 1/2
MITCHELL       CLOUDY    50  48  93 NW10      30.08R
YANKTON        CLOUDY    50  48  93 NW16      30.05S
$$

ABBREVIATIONS USED IN REMARKS
   TC - TEMPERATURE IN CELSIUS
  WCI - WIND CHILL INDEX
   HX - HEAT INDEX
  VSB - VISIBILITY





USA.gov is the U.S. government's official web portal to all federal, state and local government web resources and services.